Location: Mountain_View
(35.6670°N, 81.4000°W)
Time: 01:07:18
(UTC-05:00)

Daily predictions for brighter satellites

Satellite Brightness Start Highest point End
(mag) Time Altitude Azimuth Time Altitude Azimuth Time Altitude Azimuth
Hubble Space Telescope 4.0 04:10:00 10° ESE 04:10:00 10° ESE 04:10:03 10° ESE
Cosmos 2061 Rocket 4.4 04:16:40 59° ENE 04:17:12 61° E 04:23:31 10° SSE
Atlas Centaur 2 3.1 04:19:19 60° S 04:19:19 60° S 04:27:28 10° ESE
Lacrosse 5 rocket 3.3 04:27:36 31° E 04:27:36 31° E 04:30:29 10° NE
Cosmos 2016 Rocket 4.2 04:29:32 33° NNE 04:32:19 63° E 04:38:19 10° SSE
Meteor 2-10 Rocket 4.2 04:34:59 53° SSE 04:34:59 53° SSE 04:39:22 10° S
DELTA 2 R/B (1) 4.2 04:36:56 50° NE 04:36:56 50° NE 04:41:28 10° ENE
SL-16 R/B 2.2 04:41:37 79° ENE 04:41:37 79° ENE 04:47:07 10° NNE
Cosmos 2173 Rocket 4.3 04:55:30 48° SW 04:55:30 48° SW 05:00:15 10° S
Cosmos 1862 Rocket 4.4 04:53:57 28° NNE 04:55:58 50° E 05:00:18 10° SSE
CZ-4B R/B 3.2 05:00:30 10° N 05:06:07 64° WNW 05:11:40 10° SSW
Cosmos 1992 Rocket 4.2 05:03:11 10° S 05:08:23 71° ESE 05:13:36 10° NNE
Cosmos 2297 3.7 05:06:16 30° NNW 05:09:12 83° ENE 05:14:54 10° SSE
Delta 2 Rocket 3.3 05:09:47 79° ESE 05:09:47 79° ESE 05:13:59 10° E
DEBRIS 4.0 05:15:44 26° NNE 05:15:44 26° NNE 05:17:41 10° E
Cosmos 2278 Rocket 3.3 05:18:25 26° SW 05:18:25 26° SW 05:21:36 10° SSW
NOAA 6 4.5 05:15:13 10° NNE 05:20:18 63° ESE 05:25:21 10° S
Cosmos 2233 Rocket 4.2 05:15:38 10° N 05:21:45 70° E 05:27:51 10° SSE
Cosmos 1408 4.0 05:18:21 10° SSE 05:21:52 40° E 05:25:23 10° NNE
IRS-1C Rocket 4.3 05:24:11 10° N 05:29:07 43° WNW 05:34:03 10° SW
Cosmos 1802 Rocket 4.5 05:29:04 34° W 05:29:30 34° W 05:35:02 10° SSW
Cosmos 1503 Rocket 3.9 05:25:42 18° NNW 05:29:33 85° WSW 05:34:43 10° SSE
Meteor 1-28 Rocket 3.1 05:28:14 10° S 05:31:59 65° W 05:33:05 42° NW
ISS -2.1 05:35:31 22° SSW 05:35:31 22° SSW 05:37:21 10° S
EO 1 Del DPAF 3.6 05:32:32 10° SSE 05:36:20 66° ENE 05:40:09 10° N
IDEFIX/ARIANE 42P 3.1 05:32:28 10° NNE 05:37:36 60° E 05:42:41 10° S
USA 229 DEB 3.8 05:31:48 15° NNW 05:38:03 90° SSW 05:45:26 10° SSE
USA 229 3.8 05:31:52 15° NNW 05:38:09 89° NE 05:45:31 10° SSE
Okean-O 2.5 05:34:47 10° NNE 05:39:14 85° WNW 05:43:40 10° SSW
Landsat 4 3.7 05:38:08 10° S 05:41:46 54° W 05:43:26 29° NW
CZ-2C R/B 3.5 05:37:01 10° NNE 05:42:03 49° E 05:46:55 10° S
PAYLOAD A 4.3 05:37:47 10° NNE 05:43:02 75° ESE 05:48:25 10° S
Cosmos 968 Rocket 4.3 05:41:10 10° N 05:46:19 52° ENE 05:51:26 10° SE
Hubble Space Telescope 2.2 05:45:22 17° SW 05:47:47 29° S 05:51:24 10° ESE
Cosmos 1943 4.1 05:46:03 10° S 05:51:33 52° ESE 05:57:03 10° NNE
Cosmos 1943 Rocket 4.4 05:48:52 10° N 05:53:07 21° ENE 05:57:21 10° ESE
Cosmos 1725 Rocket 4.5 05:49:28 10° NNW 05:55:02 36° W 06:00:33 10° SSW
Cosmos 1703 Rocket 3.5 05:50:41 10° N 05:55:04 87° E 05:59:24 10° S
CZ-2C R/B 4.3 05:51:27 10° SSW 05:55:34 34° W 05:58:47 15° NW
Cosmos 1869 Rocket 3.5 05:52:42 10° S 05:57:02 90° E 06:01:27 10° N
MTI 4.3 05:56:19 10° S 05:59:19 37° W 06:01:01 20° NW
ATLAS 5 CENTAUR R/B 2.2 06:00:35 10° SSW 06:05:00 63° ESE 06:09:48 10° NE
Lacrosse 5 rocket 2.6 06:03:21 19° W 06:05:30 27° NW 06:09:29 10° NNE
Intercosmos 25 3.2 06:03:02 10° N 06:06:26 79° W 06:11:07 10° S
Cosmos 1825 2.3 06:02:50 10° SSW 06:06:29 50° W 06:10:11 10° N
Meteor 2-3 Rocket 4.4 06:01:29 10° SW 06:06:35 32° WNW 06:11:41 10° NNW
Atlas Centaur 2 3.7 06:01:56 14° W 06:08:42 47° SSW 06:16:47 10° SE
Meteor 1-10 Rocket 4.4 06:04:03 10° N 06:10:01 89° E 06:15:57 10° S
PSLV R/B 3.7 06:09:24 20° WNW 06:11:09 40° NNW 06:14:11 10° ENE
COSMO-SKYMED 1 2.9 06:08:22 10° S 06:12:30 45° W 06:16:41 10° NNW
USA 215 3.4 06:06:13 10° NE 06:12:47 83° SE 06:19:19 10° SW
SL-8 R/B 3.8 06:08:50 10° WSW 06:13:30 56° NNW 06:18:12 10° NE
OAO 1 Rocket 4.5 06:14:05 13° W 06:18:56 85° S 06:24:19 10° E
Cosmos 1484 Rocket 4.2 06:15:29 10° NNE 06:19:21 44° E 06:23:10 10° S
DELTA 2 R/B (1) 3.7 06:17:42 13° WNW 06:22:46 78° NNE 06:28:21 10° ESE
SL-16 R/B 3.8 06:23:38 11° W 06:26:12 14° NW 06:29:03 10° NNW
Cosmos 1441 Rocket 3.2 06:23:58 10° N 06:27:45 84° E 06:31:29 10° S
Cosmos 1606 3.3 06:25:49 10° NNW 06:29:17 35° W 06:32:47 10° SSW
Cosmos 2084 Rocket 3.8 06:25:51 10° NW 06:29:27 39° WSW 06:33:05 10° S
Cosmos 1603 4.2 06:25:20 10° SW 06:30:28 36° WNW 06:35:41 10° N
Cosmos 1782 3.4 06:29:07 10° NNW 06:32:43 34° W 06:36:18 10° SSW
